Hourly Weather Asuan

Today, 25 September, Friday

Time Temperature Precipitation Wind Pressure Humidity
00:00 +33°C° 0 mm 6 mps 740 mmHg 22%
01:00 +32°C° 0 mm 5 mps 740 mmHg 24%
02:00 +30°C° 0 mm 4 mps 740 mmHg 24%
03:00 +30°C° 0 mm 5 mps 740 mmHg 25%
04:00 +29°C° 0 mm 5 mps 740 mmHg 26%
05:00 +29°C° 0 mm 5 mps 741 mmHg 28%
06:00 +32°C° 0 mm 5 mps 741 mmHg 25%
07:00 +34°C° 0 mm 5 mps 741 mmHg 22%
08:00 +35°C° 0 mm 5 mps 741 mmHg 20%
09:00 +37°C° 0 mm 5 mps 741 mmHg 17%
10:00 +41°C° 0 mm 5 mps 741 mmHg 15%
11:00 +43°C° 0 mm 4 mps 740 mmHg 13%
12:00 +44°C° 0 mm 4 mps 740 mmHg 12%
13:00 +45°C° 0 mm 3 mps 739 mmHg 11%
14:00 +46°C° 0 mm 3 mps 739 mmHg 10%
15:00 +45°C° 0 mm 4 mps 738 mmHg 11%
16:00 +44°C° 0 mm 4 mps 738 mmHg 11%
17:00 +45°C° 0 mm 5 mps 738 mmHg 11%
18:00 +41°C° 0 mm 5 mps 738 mmHg 11%
19:00 +39°C° 0 mm 5 mps 739 mmHg 12%
20:00 +36°C° 0 mm 5 mps 739 mmHg 12%
21:00 +35°C° 0 mm 6 mps 739 mmHg 13%
22:00 +35°C° 0 mm 7 mps 739 mmHg 14%
23:00 +34°C° 0 mm 7 mps 740 mmHg 15%

Tomorrow, 26 September, Saturday

Time Temperature Precipitation Wind Pressure Humidity
00:00 +33°C° 0 mm 6 mps 739 mmHg 18%
01:00 +33°C° 0 mm 5 mps 739 mmHg 22%
02:00 +32°C° 0 mm 4 mps 739 mmHg 26%
03:00 +30°C° 0 mm 4 mps 739 mmHg 26%
04:00 +29°C° 0 mm 5 mps 739 mmHg 27%
05:00 +29°C° 0 mm 5 mps 739 mmHg 27%
06:00 +30°C° 0 mm 5 mps 739 mmHg 26%
07:00 +33°C° 0 mm 6 mps 740 mmHg 26%
08:00 +34°C° 0 mm 7 mps 740 mmHg 25%
09:00 +38°C° 0 mm 7 mps 740 mmHg 21%
10:00 +40°C° 0 mm 7 mps 740 mmHg 18%
11:00 +42°C° 0 mm 6 mps 740 mmHg 15%
12:00 +44°C° 0 mm 6 mps 739 mmHg 13%
13:00 +43°C° 0 mm 5 mps 738 mmHg 12%
14:00 +44°C° 0 mm 4 mps 737 mmHg 11%
15:00 +44°C° 0 mm 4 mps 737 mmHg 11%
16:00 +43°C° 0 mm 4 mps 737 mmHg 11%
17:00 +43°C° 0 mm 4 mps 737 mmHg 11%
18:00 +41°C° 0 mm 4 mps 738 mmHg 12%
19:00 +38°C° 0 mm 4 mps 738 mmHg 14%
20:00 +36°C° 0 mm 4 mps 738 mmHg 16%
21:00 +35°C° 0 mm 5 mps 739 mmHg 17%
22:00 +34°C° 0 mm 6 mps 739 mmHg 19%
23:00 +34°C° 0 mm 6 mps 739 mmHg 20%

Day after tomorrow, 27 September, Sunday

Time Temperature Precipitation Wind Pressure Humidity
00:00 +33°C° 0 mm 6 mps 739 mmHg 23%
01:00 +32°C° 0 mm 5 mps 739 mmHg 26%
02:00 +30°C° 0 mm 4 mps 739 mmHg 29%
03:00 +29°C° 0 mm 4 mps 739 mmHg 30%
04:00 +29°C° 0 mm 4 mps 739 mmHg 31%
05:00 +28°C° 0 mm 5 mps 739 mmHg 31%
06:00 +30°C° 0 mm 5 mps 740 mmHg 29%
07:00 +33°C° 0 mm 5 mps 740 mmHg 26%
08:00 +35°C° 0 mm 6 mps 740 mmHg 23%
09:00 +37°C° 0 mm 5 mps 740 mmHg 20%
10:00 +39°C° 0 mm 5 mps 740 mmHg 17%
11:00 +41°C° 0 mm 5 mps 740 mmHg 15%
12:00 +42°C° 0 mm 4 mps 739 mmHg 14%
13:00 +43°C° 0 mm 3 mps 739 mmHg 12%
14:00 +43°C° 0 mm 2 mps 738 mmHg 11%
15:00 +42°C° 0 mm 2 mps 738 mmHg 11%
16:00 +42°C° 0 mm 2 mps 738 mmHg 11%
17:00 +42°C° 0 mm 2 mps 738 mmHg 12%
18:00 +40°C° 0 mm 2 mps 738 mmHg 13%
19:00 +38°C° 0 mm 3 mps 739 mmHg 15%
20:00 +35°C° 0 mm 3 mps 740 mmHg 16%
21:00 +35°C° 0 mm 4 mps 740 mmHg 16%
22:00 +34°C° 0 mm 4 mps 740 mmHg 16%
23:00 +34°C° 0 mm 5 mps 740 mmHg 16%

28 September, Monday

Time Temperature Precipitation Wind Pressure Humidity
00:00 +33°C° 0 mm 4 mps 740 mmHg 17%
01:00 +32°C° 0 mm 4 mps 740 mmHg 19%
02:00 +30°C° 0 mm 3 mps 739 mmHg 20%
03:00 +30°C° 0 mm 3 mps 740 mmHg 21%
04:00 +30°C° 0 mm 3 mps 740 mmHg 22%
05:00 +29°C° 0 mm 3 mps 740 mmHg 23%
06:00 +32°C° 0 mm 4 mps 740 mmHg 22%
07:00 +34°C° 0 mm 4 mps 740 mmHg 22%
08:00 +36°C° 0 mm 5 mps 741 mmHg 21%
09:00 +38°C° 0 mm 4 mps 741 mmHg 18%
10:00 +41°C° 0 mm 4 mps 741 mmHg 16%
11:00 +43°C° 0 mm 4 mps 740 mmHg 13%
12:00 +44°C° 0 mm 4 mps 740 mmHg 11%
13:00 +45°C° 0 mm 3 mps 739 mmHg 10%
14:00 +46°C° 0 mm 2 mps 739 mmHg 9%
15:00 +46°C° 0 mm 2 mps 739 mmHg 9%
16:00 +45°C° 0 mm 2 mps 738 mmHg 9%
17:00 +45°C° 0 mm 2 mps 738 mmHg 9%
18:00 +43°C° 0 mm 3 mps 739 mmHg 10%
19:00 +41°C° 0 mm 4 mps 739 mmHg 11%
20:00 +40°C° 0 mm 4 mps 740 mmHg 12%
21:00 +38°C° 0 mm 4 mps 740 mmHg 13%
22:00 +37°C° 0 mm 4 mps 740 mmHg 14%
23:00 +37°C° 0 mm 5 mps 740 mmHg 15%

29 September, Tuesday

Time Temperature Precipitation Wind Pressure Humidity
00:00 +35°C° 0 mm 4 mps 740 mmHg 17%
01:00 +34°C° 0 mm 3 mps 740 mmHg 19%
02:00 +33°C° 0 mm 3 mps 739 mmHg 21%
03:00 +33°C° 0 mm 3 mps 739 mmHg 20%
04:00 +33°C° 0 mm 3 mps 739 mmHg 20%
05:00 +32°C° 0 mm 2 mps 739 mmHg 20%
06:00 +35°C° 0 mm 3 mps 740 mmHg 18%
07:00 +37°C° 0 mm 3 mps 740 mmHg 16%
08:00 +40°C° 0 mm 4 mps 741 mmHg 14%
09:00 +41°C° 0 mm 4 mps 740 mmHg 13%
10:00 +43°C° 0 mm 4 mps 740 mmHg 12%
11:00 +45°C° 0 mm 3 mps 739 mmHg 10%
12:00 +46°C° 0 mm 3 mps 739 mmHg 10%
13:00 +47°C° 0 mm 3 mps 738 mmHg 9%
14:00 +47°C° 0 mm 2 mps 738 mmHg 8%
15:00 +47°C° 0 mm 2 mps 737 mmHg 8%
16:00 +46°C° 0 mm 2 mps 737 mmHg 9%
17:00 +45°C° 0 mm 2 mps 737 mmHg 9%
18:00 +43°C° 0 mm 3 mps 737 mmHg 10%
19:00 +42°C° 0 mm 4 mps 738 mmHg 10%
20:00 +40°C° 0 mm 5 mps 738 mmHg 11%
21:00 +39°C° 0 mm 5 mps 738 mmHg 11%
22:00 +37°C° 0 mm 5 mps 738 mmHg 11%
23:00 +37°C° 0 mm 5 mps 738 mmHg 12%

30 September, Wednesday

Time Temperature Precipitation Wind Pressure Humidity
00:00 +36°C° 0 mm 4 mps 738 mmHg 13%
01:00 +35°C° 0 mm 4 mps 737 mmHg 14%
02:00 +34°C° 0 mm 3 mps 737 mmHg 15%
03:00 +33°C° 0 mm 3 mps 737 mmHg 15%
04:00 +33°C° 0 mm 3 mps 737 mmHg 15%
05:00 +31°C° 0 mm 2 mps 737 mmHg 16%
06:00 +35°C° 0 mm 2 mps 737 mmHg 14%
07:00 +37°C° 0 mm 2 mps 738 mmHg 13%
08:00 +39°C° 0 mm 2 mps 738 mmHg 11%
09:00 +41°C° 0 mm 1 mps 738 mmHg 10%
10:00 +42°C° 0 mm 1 mps 737 mmHg 9%
11:00 +44°C° 0 mm 1 mps 737 mmHg 8%
12:00 +46°C° 0 mm 2 mps 736 mmHg 8%
13:00 +46°C° 0 mm 3 mps 736 mmHg 7%
14:00 +48°C° 0 mm 5 mps 735 mmHg 7%
15:00 +47°C° 0 mm 5 mps 735 mmHg 7%
16:00 +46°C° 0 mm 5 mps 735 mmHg 8%
17:00 +45°C° 0 mm 5 mps 734 mmHg 8%
18:00 +42°C° 0 mm 5 mps 735 mmHg 9%
19:00 +40°C° 0 mm 5 mps 735 mmHg 10%
20:00 +37°C° 0 mm 5 mps 736 mmHg 11%
21:00 +36°C° 0 mm 5 mps 736 mmHg 13%
22:00 +35°C° 0 mm 5 mps 736 mmHg 14%
23:00 +35°C° 0 mm 6 mps 736 mmHg 16%
Show more